Time,TemperatureF,DewpointF,PressureIn,WindDirection,WindDirectionDegrees,WindSpeedMPH,WindSpeedGustMPH,Humidity,HourlyPrecipIn,Conditions,Clouds,dailyrainin,SoftwareType,DateUTC
2013-06-17 00:08:00,64.3,60.0,29.88,WSW,253,0.0,0.0,87,0.00,,,0.00,weatherlink.com 1.10,2013-06-17 04:08:00,
2013-06-17 00:23:00,65.0,62.0,29.88,WSW,253,0.0,0.0,89,0.00,,,0.00,weatherlink.com 1.10,2013-06-17 04:23:00,
2013-06-17 00:38:00,65.9,63.0,29.88,WSW,255,1.0,2.0,91,0.00,,,0.00,weatherlink.com 1.10,2013-06-17 04:38:00,
2013-06-17 00:53:00,66.5,63.0,29.88,West,267,2.0,2.0,87,0.00,,,0.00,weatherlink.com 1.10,2013-06-17 04:53:00,
2013-06-17 01:08:00,66.9,63.0,29.88,West,274,0.0,2.0,88,0.00,,,0.00,weatherlink.com 1.10,2013-06-17 05:08:00,
2013-06-17 01:23:00,66.6,63.0,29.88,WSW,243,0.0,1.0,88,0.00,,,0.00,weatherlink.com 1.10,2013-06-17 05:23:00,
2013-06-17 01:38:00,65.9,62.0,29.88,WSW,242,0.0,1.0,88,0.00,,,0.00,weatherlink.com 1.10,2013-06-17 05:38:00,
2013-06-17 01:53:00,65.7,62.0,29.88,WSW,242,0.0,0.0,88,0.00,,,0.00,weatherlink.com 1.10,2013-06-17 05:53:00,
2013-06-17 02:08:00,65.2,61.0,29.88,WSW,242,0.0,1.0,87,0.00,,,0.00,weatherlink.com 1.10,2013-06-17 06:08:00,
2013-06-17 02:23:00,64.6,61.0,29.88,WSW,242,0.0,1.0,87,0.00,,,0.00,weatherlink.com 1.10,2013-06-17 06:23:00,
2013-06-17 02:38:00,64.1,60.0,29.88,WSW,242,0.0,0.0,87,0.00,,,0.00,weatherlink.com 1.10,2013-06-17 06:38:00,
2013-06-17 02:53:00,63.9,60.0,29.88,WSW,242,0.0,1.0,87,0.00,,,0.00,weatherlink.com 1.10,2013-06-17 06:53:00,
2013-06-17 03:08:00,63.6,60.0,29.88,WSW,242,0.0,1.0,87,0.00,,,0.00,weatherlink.com 1.10,2013-06-17 07:08:00,
2013-06-17 03:23:00,63.4,60.0,29.88,WSW,242,0.0,0.0,87,0.00,,,0.00,weatherlink.com 1.10,2013-06-17 07:23:00,
2013-06-17 03:38:00,63.5,60.0,29.88,SSW,195,0.0,0.0,88,0.00,,,0.00,weatherlink.com 1.10,2013-06-17 07:38:00,
2013-06-17 03:53:00,63.4,60.0,29.88,SSW,195,0.0,0.0,88,0.00,,,0.00,weatherlink.com 1.10,2013-06-17 07:53:00,
2013-06-17 04:08:00,62.9,59.0,29.89,SSW,195,0.0,0.0,88,0.00,,,0.00,weatherlink.com 1.10,2013-06-17 08:08:00,
2013-06-17 04:24:00,62.3,59.0,29.89,SW,218,1.0,1.0,88,0.00,,,0.00,weatherlink.com 1.10,2013-06-17 08:24:00,
2013-06-17 04:39:00,62.6,59.0,29.89,SW,218,0.0,1.0,89,0.00,,,0.00,weatherlink.com 1.10,2013-06-17 08:39:00,
2013-06-17 04:54:00,62.6,59.0,29.89,SW,217,0.0,1.0,89,0.00,,,0.00,weatherlink.com 1.10,2013-06-17 08:54:00,
2013-06-17 05:09:00,62.3,59.0,29.89,SW,218,0.0,1.0,88,0.00,,,0.00,weatherlink.com 1.10,2013-06-17 09:09:00,
2013-06-17 05:24:00,62.2,59.0,29.90,SW,218,0.0,0.0,89,0.00,,,0.00,weatherlink.com 1.10,2013-06-17 09:24:00,
2013-06-17 05:39:00,62.4,59.0,29.90,SW,217,0.0,0.0,89,0.00,,,0.00,weatherlink.com 1.10,2013-06-17 09:39:00,
2013-06-17 05:54:00,62.7,60.0,29.91,SW,218,0.0,0.0,90,0.00,,,0.00,weatherlink.com 1.10,2013-06-17 09:54:00,
2013-06-17 06:09:00,62.3,59.0,29.91,SW,218,0.0,0.0,88,0.00,,,0.00,weatherlink.com 1.10,2013-06-17 10:09:00,
2013-06-17 06:24:00,62.7,60.0,29.91,SW,218,0.0,0.0,89,0.00,,,0.00,weatherlink.com 1.10,2013-06-17 10:24:00,
2013-06-17 06:39:00,64.0,61.0,29.92,SW,217,0.0,0.0,91,0.00,,,0.00,weatherlink.com 1.10,2013-06-17 10:39:00,
2013-06-17 06:54:00,64.8,63.0,29.92,SW,218,0.0,1.0,92,0.00,,,0.00,weatherlink.com 1.10,2013-06-17 10:54:00,
2013-06-17 07:09:00,65.7,63.0,29.92,SSE,160,0.0,1.0,92,0.00,,,0.00,weatherlink.com 1.10,2013-06-17 11:09:00,
2013-06-17 07:24:00,66.5,64.0,29.92,SSE,157,0.0,1.0,92,0.00,,,0.00,weatherlink.com 1.10,2013-06-17 11:24:00,
2013-06-17 07:39:00,67.3,65.0,29.92,SSE,163,0.0,1.0,92,0.00,,,0.00,weatherlink.com 1.10,2013-06-17 11:39:00,
2013-06-17 07:54:00,68.0,65.0,29.92,SSE,163,0.0,0.0,91,0.00,,,0.00,weatherlink.com 1.10,2013-06-17 11:54:00,
2013-06-17 08:09:00,68.6,65.0,29.93,SW,222,1.0,1.0,89,0.00,,,0.00,weatherlink.com 1.10,2013-06-17 12:09:00,
2013-06-17 08:24:00,69.4,65.0,29.93,WSW,240,0.0,1.0,87,0.00,,,0.00,weatherlink.com 1.10,2013-06-17 12:24:00,
2013-06-17 08:39:00,70.4,67.0,29.93,WSW,245,1.0,2.0,89,0.00,,,0.00,weatherlink.com 1.10,2013-06-17 12:39:00,
2013-06-17 08:54:00,71.2,68.0,29.93,SW,220,2.0,3.0,89,0.00,,,0.00,weatherlink.com 1.10,2013-06-17 12:54:00,
2013-06-17 09:09:00,72.3,69.0,29.92,West,269,2.0,4.0,89,0.00,,,0.00,weatherlink.com 1.10,2013-06-17 13:09:00,
2013-06-17 09:24:00,73.6,70.0,29.92,WSW,240,3.0,6.0,87,0.00,,,0.00,weatherlink.com 1.10,2013-06-17 13:24:00,
2013-06-17 09:39:00,74.6,70.0,29.92,West,268,2.0,6.0,86,0.00,,,0.00,weatherlink.com 1.10,2013-06-17 13:39:00,
2013-06-17 09:54:00,75.8,70.0,29.92,WSW,254,4.0,6.0,82,0.00,,,0.00,weatherlink.com 1.10,2013-06-17 13:54:00,
2013-06-17 10:09:00,77.2,71.0,29.91,WNW,285,2.0,7.0,81,0.00,,,0.00,weatherlink.com 1.10,2013-06-17 14:09:00,
2013-06-17 10:24:00,77.9,71.0,29.91,SSW,200,2.0,5.0,80,0.00,,,0.00,weatherlink.com 1.10,2013-06-17 14:24:00,
2013-06-17 10:39:00,79.1,71.0,29.91,WSW,254,2.0,8.0,75,0.00,,,0.00,weatherlink.com 1.10,2013-06-17 14:39:00,
2013-06-17 10:54:00,79.8,70.0,29.91,SW,236,6.0,9.0,73,0.00,,,0.00,weatherlink.com 1.10,2013-06-17 14:54:00,
2013-06-17 11:10:00,80.0,70.0,29.90,West,274,3.0,9.0,72,0.00,,,0.00,weatherlink.com 1.10,2013-06-17 15:10:00,
2013-06-17 11:25:00,80.3,69.0,29.89,SSW,193,5.0,9.0,69,0.00,,,0.00,weatherlink.com 1.10,2013-06-17 15:25:00,
2013-06-17 11:40:00,80.8,70.0,29.89,SW,231,7.0,10.0,70,0.00,,,0.00,weatherlink.com 1.10,2013-06-17 15:40:00,
2013-06-17 11:55:00,81.6,69.0,29.89,South,180,6.0,11.0,66,0.00,,,0.00,weatherlink.com 1.10,2013-06-17 15:55:00,
2013-06-17 12:10:00,82.0,71.0,29.89,WSW,244,4.0,10.0,69,0.00,,,0.00,weatherlink.com 1.10,2013-06-17 16:10:00,
2013-06-17 12:25:00,81.9,70.0,29.89,SW,221,3.0,11.0,67,0.00,,,0.00,weatherlink.com 1.10,2013-06-17 16:25:00,
2013-06-17 12:40:00,82.7,70.0,29.89,West,259,4.0,11.0,66,0.00,,,0.00,weatherlink.com 1.10,2013-06-17 16:40:00,
2013-06-17 12:55:00,83.2,70.0,29.89,West,271,7.0,12.0,64,0.00,,,0.00,weatherlink.com 1.10,2013-06-17 16:55:00,
2013-06-17 13:10:00,82.9,69.0,29.89,WSW,250,10.0,12.0,64,0.00,,,0.00,weatherlink.com 1.10,2013-06-17 17:10:00,
2013-06-17 13:25:00,83.6,69.0,29.89,West,281,6.0,10.0,61,0.00,,,0.00,weatherlink.com 1.10,2013-06-17 17:25:00,
2013-06-17 13:40:00,83.0,69.0,29.89,SW,231,9.0,10.0,63,0.00,,,0.00,weatherlink.com 1.10,2013-06-17 17:40:00,
2013-06-17 13:55:00,84.1,68.0,29.89,West,264,3.0,10.0,59,0.00,,,0.00,weatherlink.com 1.10,2013-06-17 17:55:00,
2013-06-17 14:10:00,84.5,69.0,29.89,SW,229,5.0,9.0,59,0.00,,,0.00,weatherlink.com 1.10,2013-06-17 18:10:00,
2013-06-17 14:25:00,85.2,68.0,29.89,West,278,5.0,9.0,57,0.00,,,0.00,weatherlink.com 1.10,2013-06-17 18:25:00,
2013-06-17 14:40:00,85.1,69.0,29.88,West,281,5.0,10.0,58,0.00,,,0.00,weatherlink.com 1.10,2013-06-17 18:40:00,
2013-06-17 14:55:00,85.0,69.0,29.88,West,273,4.0,13.0,59,0.00,,,0.00,weatherlink.com 1.10,2013-06-17 18:55:00,
2013-06-17 15:10:00,84.6,69.0,29.87,SSW,198,7.0,14.0,60,0.00,,,0.00,weatherlink.com 1.10,2013-06-17 19:10:00,
2013-06-17 15:25:00,84.7,69.0,29.87,South,174,5.0,12.0,60,0.00,,,0.00,weatherlink.com 1.10,2013-06-17 19:25:00,
2013-06-17 15:40:00,85.4,71.0,29.86,SW,233,9.0,11.0,62,0.00,,,0.00,weatherlink.com 1.10,2013-06-17 19:40:00,
2013-06-17 15:55:00,84.9,69.0,29.86,West,266,4.0,13.0,60,0.00,,,0.00,weatherlink.com 1.10,2013-06-17 19:55:00,
2013-06-17 16:10:00,84.8,69.0,29.86,WSW,258,5.0,9.0,59,0.00,,,0.00,weatherlink.com 1.10,2013-06-17 20:10:00,
2013-06-17 16:25:00,84.8,69.0,29.86,WSW,245,7.0,11.0,60,0.00,,,0.00,weatherlink.com 1.10,2013-06-17 20:25:00,
2013-06-17 16:40:00,84.4,69.0,29.85,WSW,243,4.0,10.0,60,0.00,,,0.00,weatherlink.com 1.10,2013-06-17 20:40:00,
2013-06-17 16:55:00,84.6,69.0,29.85,West,262,4.0,10.0,60,0.00,,,0.00,weatherlink.com 1.10,2013-06-17 20:55:00,
2013-06-17 17:10:00,84.7,69.0,29.85,SW,218,4.0,8.0,60,0.00,,,0.00,weatherlink.com 1.10,2013-06-17 21:10:00,
2013-06-17 17:25:00,83.8,69.0,29.85,SW,222,4.0,10.0,61,0.00,,,0.00,weatherlink.com 1.10,2013-06-17 21:25:00,
2013-06-17 17:40:00,83.0,71.0,29.85,SSW,213,5.0,7.0,68,0.00,,,0.00,weatherlink.com 1.10,2013-06-17 21:40:00,
2013-06-17 17:55:00,82.2,72.0,29.85,SSW,195,5.0,8.0,70,0.00,,,0.00,weatherlink.com 1.10,2013-06-17 21:55:00,
2013-06-17 18:10:00,81.0,71.0,29.85,SW,219,5.0,11.0,72,0.00,,,0.00,weatherlink.com 1.10,2013-06-17 22:10:00,
2013-06-17 18:25:00,80.3,71.0,29.85,SSW,200,3.0,6.0,74,0.00,,,0.00,weatherlink.com 1.10,2013-06-17 22:25:00,
2013-06-17 18:40:00,79.4,72.0,29.87,WSW,250,2.0,7.0,78,0.00,,,0.00,weatherlink.com 1.10,2013-06-17 22:40:00,
2013-06-17 18:55:00,78.3,72.0,29.88,SW,218,1.0,5.0,82,0.00,,,0.00,weatherlink.com 1.10,2013-06-17 22:55:00,
2013-06-17 19:10:00,76.3,72.0,29.88,WNW,294,2.0,5.0,87,0.01,,,0.01,weatherlink.com 1.10,2013-06-17 23:10:00,
2013-06-17 19:25:00,74.6,70.0,29.88,WNW,290,4.0,14.0,86,0.02,,,0.02,weatherlink.com 1.10,2013-06-17 23:25:00,
2013-06-17 19:40:00,71.0,67.0,29.88,NW,322,0.0,6.0,88,0.03,,,0.03,weatherlink.com 1.10,2013-06-17 23:40:00,
2013-06-17 19:55:00,69.8,66.0,29.88,SW,228,0.0,4.0,87,0.03,,,0.03,weatherlink.com 1.10,2013-06-17 23:55:00,
2013-06-17 20:10:00,68.9,65.0,29.88,WSW,245,1.0,3.0,88,0.02,,,0.03,weatherlink.com 1.10,2013-06-18 00:10:00,
2013-06-17 20:25:00,68.1,65.0,29.88,WNW,283,0.0,3.0,89,0.01,,,0.03,weatherlink.com 1.10,2013-06-18 00:25:00,
2013-06-17 20:40:00,67.8,65.0,29.88,West,268,1.0,2.0,89,0.00,,,0.03,weatherlink.com 1.10,2013-06-18 00:40:00,
2013-06-17 20:55:00,67.4,64.0,29.88,NW,326,0.0,2.0,89,0.00,,,0.03,weatherlink.com 1.10,2013-06-18 00:55:00,
2013-06-17 21:10:00,66.9,63.0,29.88,NNE,32,0.0,2.0,88,0.00,,,0.03,weatherlink.com 1.10,2013-06-18 01:10:00,
2013-06-17 21:25:00,67.1,63.0,29.89,NE,39,0.0,0.0,87,0.00,,,0.03,weatherlink.com 1.10,2013-06-18 01:25:00,
2013-06-17 21:40:00,66.8,63.0,29.90,North,352,0.0,3.0,88,0.00,,,0.03,weatherlink.com 1.10,2013-06-18 01:40:00,
2013-06-17 21:55:00,67.0,63.0,29.91,WSW,239,0.0,0.0,88,0.00,,,0.03,weatherlink.com 1.10,2013-06-18 01:55:00,
2013-06-17 22:10:00,67.6,64.0,29.91,WNW,291,2.0,5.0,89,0.00,,,0.03,weatherlink.com 1.10,2013-06-18 02:10:00,
2013-06-17 22:25:00,67.9,65.0,29.91,SW,216,2.0,6.0,89,0.02,,,0.05,weatherlink.com 1.10,2013-06-18 02:25:00,
2013-06-17 22:40:00,68.0,65.0,29.90,WSW,247,3.0,9.0,89,0.02,,,0.05,weatherlink.com 1.10,2013-06-18 02:40:00,
2013-06-17 22:55:00,67.6,64.0,29.90,SW,235,0.0,5.0,89,0.02,,,0.05,weatherlink.com 1.10,2013-06-18 02:55:00,
2013-06-17 23:10:00,67.2,64.0,29.90,West,280,3.0,7.0,89,0.02,,,0.05,weatherlink.com 1.10,2013-06-18 03:10:00,
2013-06-17 23:25:00,67.5,64.0,29.90,NW,307,4.0,6.0,89,0.00,,,0.05,weatherlink.com 1.10,2013-06-18 03:25:00,
2013-06-17 23:40:00,67.1,64.0,29.89,WSW,254,1.0,3.0,89,0.00,,,0.05,weatherlink.com 1.10,2013-06-18 03:40:00,
2013-06-17 23:55:00,66.6,63.0,29.88,SSE,152,0.0,0.0,89,0.00,,,0.05,weatherlink.com 1.10,2013-06-18 03:55:00,